FW7102 Weather Reports


time (UTC)temp
C
wind
direction
speed
KPH
gust
KPH
rain 1hr
cm
rain 24hr
cm
rain mn
cm
humidity
%
barometer
mb
20260503220513 18 0 8.0 16.1 0.00 0.00 0.00 60 1012.4
20260503220014 18 0 6.4 16.1 0.00 0.00 0.00 61 1012.5
20260503215746 18 0 4.8 12.9 0.00 0.00 0.00 63 1012.5
20260503215013 18 0 4.8 12.9 0.00 0.00 0.00 64 1012.4
20260503214512 18 0 4.8 16.1 0.00 0.00 0.00 64 1012.5
20260503214013 18 0 4.8 16.1 0.00 0.00 0.00 64 1012.7
20260503213509 18 0 6.4 16.1 0.00 0.00 0.00 65 1012.5
20260503213011 18 0 4.8 16.1 0.00 0.00 0.00 65 1012.7
20260503212739 18 0 4.8 12.9 0.00 0.00 0.00 66 1012.6
20260503212238 18 0 4.8 16.1 0.00 0.00 0.00 67 1012.7
20260503211505 18 0 4.8 16.1 0.00 0.00 0.00 66 1012.7
20260503211236 18 0 4.8 14.5 0.00 0.00 0.00 66 1012.7
20260503210505 18 0 4.8 14.5 0.00 0.00 0.00 65 1012.7
20260503210005 19 0 4.8 12.9 0.00 0.00 0.00 66 1012.6
20260503205505 19 0 3.2 12.9 0.00 0.00 0.00 65 1012.7
20260503204501 19 0 4.8 9.7 0.00 0.00 0.00 66 1012.7
20260503204001 19 0 4.8 14.5 0.00 0.00 0.00 65 1012.8
20260503203501 20 0 4.8 14.5 0.00 0.00 0.00 65 1012.8
20260503203000 20 0 4.8 12.9 0.00 0.00 0.00 65 1012.8
20260503202500 20 0 4.8 12.9 0.00 0.00 0.00 66 1012.9
20260503201959 20 0 3.2 9.7 0.00 0.00 0.00 65 1012.9
20260503201459 19 0 3.2 12.9 0.00 0.00 0.00 68 1012.9
20260503200957 19 0 4.8 14.5 0.00 0.00 0.00 67 1013.0
20260503200455 19 0 6.4 14.5 0.00 0.00 0.00 67 1013.0
20260503195951 18 0 4.8 12.9 0.00 0.00 0.00 67 1013.1
20260503195449 18 0 4.8 14.5 0.00 0.00 0.00 67 1013.1
20260503195219 18 0 4.8 14.5 0.00 0.00 0.00 69 1013.2
20260503194450 18 0 3.2 9.7 0.00 0.00 0.00 68 1013.2
20260503194219 18 0 4.8 14.5 0.00 0.00 0.00 69 1013.3
20260503193447 18 0 6.4 14.5 0.00 0.00 0.00 70 1013.4
20260503192948 18 0 6.4 14.5 0.00 0.00 0.00 71 1013.5
20260503192713 18 0 4.8 14.5 0.00 0.00 0.00 71 1013.6
20260503191941 18 0 4.8 9.7 0.00 0.00 0.00 72 1013.5
20260503191441 17 0 4.8 12.9 0.00 0.00 0.00 74 1013.6
20260503190935 17 0 3.2 12.9 0.00 0.00 0.00 73 1013.6
20260503190435 17 0 3.2 9.7 0.00 0.00 0.00 74 1013.8
20260503185935 17 0 3.2 8.0 0.00 0.00 0.00 74 1013.8
20260503185429 17 0 3.2 8.0 0.00 0.00 0.00 75 1013.8
20260503185200 16 0 3.2 9.7 0.00 0.00 0.00 77 1013.8
20260503184428 16 0 3.2 9.7 0.00 0.00 0.00 78 1013.9
20260503184154 16 0 3.2 8.0 0.00 0.00 0.00 79 1013.9
20260503183423 16 0 3.2 8.0 0.00 0.00 0.00 80 1014.0
20260503182417 15 0 4.8 12.9 0.00 0.00 0.00 82 1014.0
20260503181917 15 0 4.8 12.9 0.00 0.00 0.00 83 1014.0
20260503181417 15 0 3.2 8.0 0.00 0.00 0.00 84 1013.9
20260503180911 15 0 3.2 9.7 0.00 0.00 0.00 85 1014.0
20260503180411 15 0 4.8 12.9 0.00 0.00 0.00 84 1014.1
20260503175912 16 0 4.8 14.5 0.00 0.00 0.00 83 1014.0
20260503175404 16 0 4.8 12.9 0.00 0.00 0.00 82 1014.0
20260503174905 16 0 3.2 12.9 0.00 0.00 0.00 81 1014.0
20260503173903 16 0 3.2 9.7 0.00 0.00 0.00 80 1013.8
20260503173402 16 0 1.6 6.4 0.00 0.00 0.00 80 1013.8
20260503172857 16 0 1.6 6.4 0.00 0.00 0.00 81 1013.7
20260503172358 16 0 3.2 8.0 0.00 0.00 0.00 80 1013.7
20260503171857 16 0 3.2 8.0 0.00 0.00 0.00 80 1013.6
20260503171354 16 0 1.6 8.0 0.00 0.00 0.00 80 1013.6
20260503171124 16 0 1.6 6.4 0.00 0.00 0.00 81 1013.5
20260503170353 16 0 1.6 6.4 0.00 0.00 0.00 81 1013.5
20260503150813 13 0 0.0 0.0 0.00 0.00 0.00 90 1013.0
20260503150311 13 0 0.0 0.0 0.00 0.00 0.00 90 1012.9
20260503131242 13 0 0.0 3.2 0.00 0.00 0.00 90 1012.3
20260503130742 13 0 0.0 0.0 0.00 0.00 0.00 90 1012.2
20260503130243 13 0 0.0 0.0 0.00 0.00 0.00 90 1012.1
20260503110442 14 0 3.2 12.9 0.00 0.00 0.00 89 1011.7
20260503100151 14 0 3.2 6.4 0.00 0.00 0.00 89 1011.9
20260503090130 15 0 4.8 9.7 0.00 0.00 0.00 88 1012.2
20260503081612 15 0 3.2 8.0 0.00 0.00 0.00 87 1012.5
20260503081111 15 0 3.2 8.0 0.00 0.00 0.00 87 1012.5
20260503080607 15 0 1.6 8.0 0.00 0.00 0.00 87 1012.5
20260503080106 15 0 0.0 0.0 0.00 0.00 0.00 87 1012.5
20260503072559 15 0 0.0 12.9 0.00 0.00 0.00 87 1012.3
20260503072330 15 0 0.0 0.0 0.00 0.00 0.00 87 1012.2
20260503071558 15 0 0.0 0.0 0.00 0.00 0.00 87 1012.2
20260503071329 15 0 0.0 3.2 0.00 0.00 0.00 86 1011.9
20260503070829 15 0 1.6 9.7 0.00 0.00 0.00 86 1012.1
20260503070330 15 0 3.2 9.7 0.00 0.00 0.00 86 1012.1
20260503055053 15 0 1.6 4.8 0.00 0.00 0.00 84 1011.8
20260503054552 15 0 1.6 4.8 0.00 0.00 0.00 84 1011.8
20260503053548 15 0 1.6 4.8 0.00 0.00 0.00 84 1011.9
20260503053046 15 0 1.6 8.0 0.00 0.00 0.00 83 1011.9
20260503052547 15 0 3.2 8.0 0.00 0.00 0.00 83 1012.1
20260503052040 15 0 4.8 8.0 0.00 0.00 0.00 83 1012.0
20260503051541 15 0 3.2 8.0 0.00 0.00 0.00 83 1012.0
20260503051042 15 0 1.6 8.0 0.00 0.00 0.00 82 1012.1
20260503050541 15 0 1.6 4.8 0.00 0.00 0.00 82 1012.1
20260503045542 16 0 1.6 6.4 0.00 0.00 0.00 82 1011.9
20260503045042 16 0 1.6 6.4 0.00 0.00 0.00 81 1011.9
20260503044541 16 0 1.6 6.4 0.00 0.00 0.00 81 1011.9
20260503044041 16 0 1.6 8.0 0.00 0.00 0.00 81 1011.9
20260503043541 16 0 1.6 8.0 0.00 0.00 0.00 81 1011.8
20260503043039 16 0 3.2 8.0 0.00 0.00 0.00 80 1011.8
20260503042534 16 0 4.8 9.7 0.00 0.00 0.00 81 1011.7
20260503042035 16 0 3.2 9.7 0.00 0.00 0.00 80 1011.6
20260503041534 16 0 4.8 9.7 0.00 0.00 0.00 80 1011.5
20260503041028 16 0 4.8 9.7 0.00 0.00 0.00 80 1011.5
20260503040758 16 0 4.8 9.7 0.00 0.00 0.00 80 1011.4
20260503040256 16 0 3.2 9.7 0.00 0.00 0.00 79 1011.4
20260503035520 16 0 3.2 9.7 0.00 0.00 0.00 79 1011.2
20260503035249 16 0 4.8 12.9 0.00 0.00 0.00 78 1011.1
20260503034519 17 0 4.8 12.9 0.00 0.00 0.00 78 1011.1
20260503034012 17 0 4.8 12.9 0.00 0.00 0.00 77 1011.0
20260503033512 17 0 4.8 12.9 0.00 0.00 0.00 77 1010.8
20260503033011 17 0 6.4 12.9 0.00 0.00 0.00 76 1010.7
20260503032506 17 0 6.4 12.9 0.00 0.00 0.00 76 1010.7
20260503032004 17 0 4.8 12.9 0.00 0.00 0.00 75 1010.7
20260503031504 17 0 4.8 12.9 0.00 0.00 0.00 74 1010.6
20260503031005 17 0 4.8 12.9 0.00 0.00 0.00 74 1010.6
20260503030504 18 0 6.4 16.1 0.00 0.00 0.00 74 1010.5
20260503025458 18 0 4.8 8.0 0.00 0.00 0.00 73 1010.3
20260503024958 18 0 6.4 17.7 0.00 0.00 0.00 72 1010.2
20260503024456 18 0 6.4 17.7 0.00 0.00 0.00 72 1010.1
20260503023956 18 0 3.2 12.9 0.00 0.00 0.00 70 1010.0
20260503023454 19 0 4.8 9.7 0.00 0.00 0.00 70 1010.0
20260503022954 19 0 6.4 17.7 0.00 0.00 0.00 69 1009.9
20260503022454 19 0 4.8 17.7 0.00 0.00 0.00 68 1009.8
20260503021948 20 0 4.8 14.5 0.00 0.00 0.00 68 1009.7
20260503021448 20 0 6.4 14.5 0.00 0.00 0.00 67 1009.6
20260503020948 20 0 6.4 14.5 0.00 0.00 0.00 66 1009.6
20260503020446 21 0 6.4 14.5 0.00 0.00 0.00 65 1009.6
20260503015945 21 0 6.4 14.5 0.00 0.00 0.00 64 1009.6
20260503015440 21 0 4.8 14.5 0.00 0.00 0.00 63 1009.6
20260503014940 22 0 4.8 12.9 0.00 0.00 0.00 63 1009.6
20260503014711 22 0 4.8 12.9 0.00 0.00 0.00 61 1009.5
20260503013935 22 0 4.8 12.9 0.00 0.00 0.00 61 1009.5
20260503013704 22 0 4.8 9.7 0.00 0.00 0.00 62 1009.4
20260503012934 22 0 6.4 14.5 0.00 0.00 0.00 61 1009.4
20260503012427 22 0 6.4 14.5 0.00 0.00 0.00 60 1009.5
20260503011928 22 0 6.4 14.5 0.00 0.00 0.00 60 1009.5
20260503011429 23 0 6.4 14.5 0.00 0.00 0.00 60 1009.4
20260503010922 23 0 4.8 12.9 0.00 0.00 0.00 59 1009.4
20260503010422 23 0 4.8 12.9 0.00 0.00 0.00 58 1009.4
20260503005923 23 0 4.8 9.7 0.00 0.00 0.00 58 1009.4
20260503005417 23 0 4.8 9.7 0.00 0.00 0.00 58 1009.5
20260503004916 23 0 4.8 14.5 0.00 0.00 0.00 59 1009.5
20260503004415 23 0 4.8 14.5 0.00 0.00 0.00 58 1009.5
20260503004141 23 0 3.2 12.9 0.00 0.00 0.00 58 1009.5
20260503003410 24 0 4.8 16.1 0.00 0.00 0.00 58 1009.6
20260503002910 24 0 6.4 16.1 0.00 0.00 0.00 58 1009.6
20260503002404 24 0 4.8 14.5 0.00 0.00 0.00 58 1009.6
20260503001903 24 0 4.8 16.1 0.00 0.00 0.00 58 1009.7
20260503001403 24 0 4.8 16.1 0.00 0.00 0.00 58 1009.7
20260503000901 24 0 4.8 16.1 0.00 0.00 0.00 58 1009.6
20260503000402 24 0 6.4 16.1 0.00 0.00 0.00 58 1009.6
20260502235900 24 0 8.0 16.1 0.00 0.00 0.00 58 1009.6
20260502235400 24 0 6.4 16.1 0.00 0.00 0.00 59 1009.6
20260502234856 24 0 6.4 14.5 0.00 0.00 0.00 58 1009.6
20260502234357 24 0 6.4 17.7 0.00 0.00 0.00 58 1009.6
20260502234120 24 0 6.4 17.7 0.00 0.00 0.00 58 1009.6
20260502233350 25 0 6.4 19.3 0.00 0.00 0.00 58 1009.7
20260502232848 24 0 6.4 19.3 0.00 0.00 0.00 58 1009.6
20260502232349 24 0 8.0 17.7 0.00 0.00 0.00 58 1009.6
20260502231847 24 0 6.4 17.7 0.00 0.00 0.00 58 1009.6
20260502231345 24 0 6.4 16.1 0.00 0.00 0.00 58 1009.7
20260502230842 25 0 6.4 17.7 0.00 0.00 0.00 57 1009.7
20260502230342 25 0 6.4 17.7 0.00 0.00 0.00 56 1009.8
20260502225843 25 0 6.4 17.7 0.00 0.00 0.00 58 1009.9
20260502225608 25 0 6.4 16.1 0.00 0.00 0.00 57 1010.1
20260502224838 25 0 8.0 17.7 0.00 0.00 0.00 58 1010.1
20260502224338 25 0 6.4 17.7 0.00 0.00 0.00 58 1010.3
20260502223839 25 0 8.0 20.9 0.00 0.00 0.00 58 1010.3
20260502223334 24 0 8.0 20.9 0.00 0.00 0.00 60 1010.4
20260502223105 24 0 8.0 20.9 0.00 0.00 0.00 59 1010.5
20260502222334 24 0 8.0 20.9 0.00 0.00 0.00 58 1010.6
20260502221833 25 0 6.4 16.1 0.00 0.00 0.00 57 1010.7
20260502221334 25 0 6.4 19.3 0.00 0.00 0.00 57 1010.7
20260502220835 25 0 8.0 19.3 0.00 0.00 0.00 57 1010.8